Погода в Новоомском

Россия / Омская область     54°50′28″N   73°18′03″E
темп.,
°C
ветер,
м/с
пор.,
м/с
влажн.,
%
обл.,
%
осадки,
мм/ч
давл.,
гПа
погр.,
м
16 мая, вс
вс1600:00+19зсз345515 0.3 101764
03:00+17зюз35604 0.0 101787
06:00+16юз410662 0.0 1016189
09:00+23з594361 0.0 1015438
12:00+28сз8103146 0.0 10151759
15:00+29сз81128100 0.0 10142508
18:00+27ссз483750 0.1 1014805
21:00+21ссв375615 0.1 1015156
17 мая, пн
пн1700:00+18с22716 0.6 101614
03:00+17в117565 0.0 101711
06:00+17юз227345 0.0 101718
09:00+24зюз585179 0.0 1017567
12:00+30з56295 0.0 10151104
15:00+32сз79225 0.0 10143573
18:00+31зсз610225 0.0 10143595
21:00+24з44370 0.0 101245
18 мая, вт
вт1800:00+22з411398 0.0 1012166
03:00+21з513396 0.0 1011284
06:00+17зсз485659 0.0 1011145
09:00+23сз58426 0.0 1011675
12:00+27сз6931100 0.0 10101943
15:00+28зсз5930100 0.0 10092926
18:00+15ссв10177892 0.3 1008440
21:00+17сз4878100 0.8 1008339
19 мая, ср
ср1900:00+15ссв488375 0.8 1010337
03:00+13ссв71085100 0.3 1011850
06:00+10ссв71189100 7.8 1015767
09:00+11св81072100 0.3 1017960
12:00+15ссв79445 0.3 10191597
15:00+17ссв78355 0.0 10191924
18:00+16с683799 0.0 10201962
21:00+13с365783 0.0 1021130
20 мая, чт
чт2000:00+10с4105922 0.0 1022251
03:00+8ссв3463100 0.0 102388
06:00+8ссв23617 0.0 102475
09:00+12с344211 0.0 1024679
12:00+15сз353699 0.0 10241343
15:00+18сз4635100 0.0 10221868
18:00+20зсз673696 0.0 10201741
21:00+16зюз4851100 0.0 1019138